Regional Weather Roundup
Issued by NWS

Home | Current Version | Previous Version | Text Only | Print | Product List | Glossary Off
Versions: 1 2 3 4 5 6 7 8 9 10 11 12 13 14 15 16 17 18 19 20 21 22 23 24 25 26 27 28 29 30 31 32 33 34 35 36 37 38 39 40 41 42 43 44 45 46 47 48 49 50

000
ASUS45 KBOU 180307
RWRCO

WEATHER ROUNDUP FOR COLORADO
NATIONAL WEATHER SERVICE DENVER/BOULDER CO
900 PM MDT FRI APR 17 2015

NOTE: "FAIR" INDICATES FEW OR NO CLOUDS BELOW 12000 FEET WITH NO
SIGNIFICANT WEATHER AND/OR OBSTRUCTIONS TO VISIBILITY.

COZ001>005-013-030-031-180400-
...NORTHWEST COLORADO...

CITY           SKY/WX    TMP DP  RH WIND       PRES   REMARKS
CRAIG          MOCLDY    38  35  89 SW7       30.00R
HAYDEN         CLOUDY    37  34  87 W6        30.00R
MEEKER         CLOUDY    37  34  89 MISG      30.03R
MOUNT WERNER   NOT AVBL
STEAMBOAT SPGS CLOUDY    38  22  53 SE5       30.00R
WALDEN         CLOUDY    30  27  86 NW7       30.05R WCI  23
$$

COZ006>008-011-180400-
...WEST CENTRAL VALLEYS...

CITY           SKY/WX    TMP DP  RH WIND       PRES   REMARKS
GRAND JUNCTION LGT RAIN  36  35  96 SW5       30.03S
MONTROSE       LGT SNOW  35  33  92 S7        30.05R FOG     WCI  29
EAGLE          PTCLDY    34  32  93 CALM      30.06R
RIFLE          MOCLDY    36  33  89 SW6       30.04S
DELTA          MIX PCPN  37  35  94 NE3       30.05R
NUCLA          LGT SNOW  34  32  93 CALM      30.07R
$$

COZ017>023-064>068-180400-
...SOUTHWEST COLORADO...

CITY           SKY/WX    TMP DP  RH WIND       PRES   REMARKS
DURANGO        CLOUDY    37  21  52 SW6       30.03R
CORTEZ         LGT RAIN  37  32  82 NE7       30.05R
PAGOSA SPRINGS CLOUDY    32  22  66 CALM      30.05R
TELLURIDE      LGT SNOW  26  26  97 CALM      30.04R
WOLF CREEK PAS CLOUDY    12  12 100 SW15G21   30.06S WCI  -4
$$

COZ009-010-012-014-032>034-037-058>063-180400-
...CENTRAL COLORADO...

CITY           SKY/WX    TMP DP  RH WIND       PRES   REMARKS
ASPEN          MOCLDY    27  26  96 NW3       30.03R
BUENA VISTA    PTCLDY    25  19  75 W8        30.05R WCI  17
COPPER MTN     MOCLDY    19   0  42 E8        30.05S WCI   9
BERTHOUD PASS  MOCLDY    14   5  67 MISG      30.08R HAZE
COTTONWOOD PAS PTCLDY    28  18  64 CALM      30.06R
GUNNISON       CLOUDY    30  25  80 NW3       30.06R
KREMMLING      PTCLDY    34  23  64 N7        30.04R WCI  28
LEADVILLE      PTCLDY    14   9  80 E6        30.05R WCI   5
MONARCH PASS     N/A     14  12  92 MISG      30.14R
SALIDA         PTCLDY    30  23  75 W5        30.12R WCI  25
SUNLIGHT       MOCLDY    21  19  93 CALM      30.06S
WILKERSON PASS CLOUDY    19  14  79 E3        30.09R
$$

COZ069>075-180400-
...SAN LUIS VALLEY/SANGRE DE CRISTO MOUNTAINS...

CITY           SKY/WX    TMP DP  RH WIND       PRES   REMARKS
ALAMOSA        MOCLDY    34  21  59 NE8       30.02R WCI  27
LA VETA PASS   PTCLDY    21  12  68 MISG      30.03R
SAGUACHE       MOCLDY    30  27  86 N10       30.03R WCI  21
$$

COZ035-036-038>040-180400-
...NORTHERN COLORADO FRONT RANGE...

CITY           SKY/WX    TMP DP  RH WIND       PRES   REMARKS
DENVER INTL AP CLOUDY    43  41  93 NW15      30.02S
DMNS CITY PARK   N/A     42  37  80 N7G16     30.01F
AURORA         MOCLDY    42  42 100 N13       30.01F
FRONT RANGE AP CLOUDY    45  36  70 W12G17    30.01F
ERIE MUNI ARPT MOCLDY    43  37  79 NE6       30.05R
BOULDER MUN AP CLOUDY    43  36  75 CALM      30.05R
CENTENNIAL     CLOUDY    41  38  89 N8        30.02R THUNDER
BROOMFIELD     CLOUDY    41  37  87 VRB7      30.05R
FORT COLLINS   MOCLDY    43  34  70 N10       30.07R
LONGMONT       CLOUDY    45  36  72 CALM      30.07R
$$

COZ041-046-047-076>085-087-088-180400-
...PIKES PEAK/PALMER DIVIDE AND SOUTHERN FOOTHILLS...

CITY           SKY/WX    TMP DP  RH WIND       PRES   REMARKS
COLO. SPRINGS  CLOUDY    36  34  92 N17       30.04S
A. F. ACADEMY  LGT SNOW  33  33  99 N2        30.05S FOG
ELLICOTT       LGT RAIN N/A N/A N/A N16       30.00F
FALCON         LGT SNOW  33  32  98 NW8       30.05S WCI  25
FORT CARSON    CLOUDY    38  33  82 N8        30.01R
LIMON          MOCLDY    39  35  86 NW12      29.99F
MONUMENT HILL  LGT SNOW  32  30  93 SW8       30.05R VSB 1   WCI  25
TRINIDAD       MOCLDY    43  28  55 NE3       29.98R
$$

COZ042>045-048>051-090-091-180400-
...NORTHEAST COLORADO...

CITY           SKY/WX    TMP DP  RH WIND       PRES   REMARKS
GREELEY ARPT   MOCLDY    43  34  70 N5        30.03R
AKRON          MOCLDY    42  40  92 N17       29.98R THUNDER
BURLINGTON     PTCLDY    50  43  77 E12       29.93R
WRAY           CLOUDY    55  42  62 SE18      29.95R
STERLING       TSTM      43  41  93 NW31G37   30.00R
HOLYOKE        RAIN      54  50  87 NE8       29.96S
FORT MORGAN    MOCLDY    41  38  89 N15       30.01R
$$

COZ086-089-092>099-180400-
...SOUTHEAST COLORADO...

CITY           SKY/WX    TMP DP  RH WIND       PRES   REMARKS
PUEBLO         MOCLDY    44  35  70 N16       29.99R
LA JUNTA       CLOUDY    49  37  63 N16       29.96R
LAMAR          PTCLDY    49  37  63 W9        29.94R
SPRINGFIELD      N/A     47  32  56 W10       29.95R
$$



USA.gov is the U.S. government's official web portal to all federal, state and local government web resources and services.